Regional Weather Roundup
Issued by NWS

Home | Current Version | Previous Version | Graphics & Text | Print | Product List | Glossary On
Versions: 1 2 3 4 5 6 7 8 9 10 11 12 13 14 15 16 17 18 19 20 21 22 23 24 25 26 27 28 29 30 31 32 33 34 35 36 37 38 39 40 41 42 43 44 45 46 47 48 49 50
000
ASUS45 KABQ 202001
RWRNM
WEATHER ROUNDUP FOR NEW MEXICO
NATIONAL WEATHER SERVICE ALBUQUERQUE NM
100 PM MST SAT DEC 20 2014

NOTE: "FAIR" MEANS FEW OR NO CLOUDS BELOW 12,000 FEET AGL WITH NO
       SIGNIFICANT WEATHER OR OBSTRUCTIONS TO VISION.

      THIS PRODUCT IS RELEASED AS TWO VERSIONS.  ONE VERSION NEAR
      THE TOP OF THE HOUR CONTAINING PRELIMINARY DATA FROM ALBUQUERQUE
      AND OTHER STATIONS.  A FINAL VERSION WITH ADDITIONAL DATA IS
      ISSUED ABOUT 10 MINUTES AFTER THE HOUR.

NMZ501-503-504-510>518-202100-
NORTHWEST PLATEAU/NORTHCENTRAL MOUNTAINS

CITY           SKY/WX    TMP DP  RH WIND       PRES   REMARKS
FARMINGTON     SUNNY     38  26  62 SW5       30.13F WCI  34
SANTA FE       MOSUNNY   39  18  42 N9        30.07F WCI  33
TAOS           SUNNY     37  18  44 CALM      30.07F

$$
NMZ402-403-502-505>509-202100-
WESTCENTRAL MOUNTAINS/SOUTHWEST MOUNTAINS

CITY           SKY/WX    TMP DP  RH WIND       PRES   REMARKS
GALLUP         SUNNY     38  25  59 VRB3      30.14F
GRANTS         SUNNY     42  21  43 N6        30.14F
SILVER CITY    SUNNY     48  32  53 SW6       30.14F

$$
NMZ407-409-411-412-202100-
SOUTHERN DESERTS

CITY           SKY/WX    TMP DP  RH WIND       PRES   REMARKS
DEMING         SUNNY     49  30  48 VRB5      30.13F
HOLLOMAN AFB   MOSUNNY   50  27  40 NW7       30.09F
ALAMOGORDO     MOSUNNY   50  25  37 NW8       30.11F
T OR C         SUNNY     48  22  35 CALM      30.10F

$$
NMZ519>523-202100-
CENTRAL VALLEYS/CENTRAL HIGHLANDS

CITY           SKY/WX    TMP DP  RH WIND       PRES   REMARKS
ALBUQUERQUE    MOSUNNY   40  25  55 CALM      30.12F
DOUBLE EAGLE   MOSUNNY   43  25  49 W7        30.11F
MORIARTY ARPT  FAIR      42  19  40 NW8       30.08F
CLINES CORNERS PTSUNNY   34  17  50 W23       30.03F WCI  22
BELEN          FAIR      44  23  43 N5        30.12F
SOCORRO        NOT AVBL

$$
NMZ524>526-539-540-202100-
SOUTHCENTRAL MOUNTAINS

CITY           SKY/WX    TMP DP  RH WIND       PRES   REMARKS
RUIDOSO        MOSUNNY   45  18  33 NW9G16    30.08F

$$
NMZ527>531-202100-
NORTHEAST HIGHLANDS/NORTHEAST PLAINS

CITY           SKY/WX    TMP DP  RH WIND       PRES   REMARKS
LAS VEGAS      PTSUNNY   47   8  20 CALM      30.01F
RATON          CLOUDY    48  10  21 S5        29.98F
CLAYTON        MOSUNNY   51  19  28 SE6       29.97F

$$
NMZ532>537-202100-
EASTCENTRAL PLAINS

CITY           SKY/WX    TMP DP  RH WIND       PRES   REMARKS
TUCUMCARI      SUNNY     49  26  41 NW6       29.99F
CANNON AFB     SUNNY     50  20  30 W12       30.01F
CLOVIS AIRPORT SUNNY     52  23  32 SW14G21   30.01F

$$
NMZ028-029-538-202100-
SOUTHEAST PLAINS

CITY           SKY/WX    TMP DP  RH WIND       PRES   REMARKS
ROSWELL        MOSUNNY   53  26  35 SE7       30.03F
ARTESIA        MOSUNNY   54  28  37 S8G14     30.04F
CARLSBAD       SUNNY     52  32  46 S12       30.04F
HOBBS          SUNNY     48  37  66 S3        30.06F


$$



USA.gov is the U.S. government's official web portal to all federal, state and local government web resources and services.